Flag for Germany Weather past 2 weeks in Neustrelitz, Mecklenburg-Western Pomerania, Germany

Now
69 °F

Scattered clouds.


Feels Like: 69 °F
Forecast: 57 / 80 °F
Wind: 2 mph from Northwest

Location: Neuruppin

Current Time: Jul 31, 2014 at 11:32:11 AM

Latest Report: Jul 31, 2014 at 11:00 AM


Visibility: 6 mi

Pressure: 29.97 "Hg

Humidity: 65%

Dew point: 57 °F

Location of NeustrelitzLocation

Historic Weather in Neustrelitz — Graph

°F

Neustrelitz temperature yesterday

Maximum temperature yesterday: 74 °F (at 1:00 PM)
Minimum temperature yesterday: 67 °F (at 8:00 PM)
Average temperature yesterday: 69 °F

Past Weeks' High & Low Weather Summary

 TemperatureHumidityPressure
High90 °F (Jul 20, 4:00 PM)97% (Jul 26, 6:00 AM)30.19 "Hg (Jul 26, 6:00 AM)
Low59 °F (Jul 31, 6:00 AM)34% (Jul 18, 3:00 PM)29.70 "Hg (Jul 30, 4:00 AM)
Average72 °F71%29.96 "Hg
* Reported Jul 16 10:00 AM — Jul 31 10:00 AM, Neustrelitz, Weather by CustomWeather, © 2014

Note: Actual official high and low records may vary slightly from our data, if they occured in-between our weather recording intervals... More about our weather records

Advertising

Neustrelitz weather history for previous 24 hours

 ConditionsComfort  
Time TempWeatherWind HumidityBarometerVisibility
10:00 AM
Jul 31
67 °FPassing clouds.3 mph72%29.96 "Hg6 mi
9:00 AM64 °FSunny.3 mph79%29.95 "Hg6 mi
8:00 AM62 °FSunny.2 mph86%29.94 "Hg6 mi
7:00 AM60 °FSunny.1 mph89%29.93 "Hg6 mi
6:00 AM59 °FSunny.1 mph90%29.92 "Hg6 mi
5:00 AM61 °FClear.2 mph87%29.91 "Hg6 mi
4:00 AM62 °FOvercast.2 mph85%29.90 "Hg6 mi
3:00 AM63 °FPassing clouds.2 mph84%29.88 "Hg6 mi
2:00 AM65 °FOvercast.3 mph81%29.87 "Hg6 mi
1:00 AM66 °FOvercast.2 mph80%29.86 "Hg6 mi
12:00 AM67 °FOvercast.1 mph85%29.85 "Hg6 mi
10:00 PM
Jul 30
67 °FOvercast.1 mph90%29.83 "Hg6 mi
9:00 PM67 °FOvercast.2 mph90%29.82 "Hg6 mi
8:00 PM67 °FOvercast.2 mph88%29.80 "Hg6 mi
7:00 PM68 °FOvercast.6 mph80%29.79 "Hg6 mi
6:00 PM68 °FOvercast.5 mph82%29.78 "Hg6 mi
5:00 PM68 °FOvercast.5 mph86%29.77 "Hg6 mi
4:00 PM69 °FOvercast.5 mph85%29.76 "Hg6 mi
3:00 PM70 °FLow clouds.5 mph85%29.74 "Hg6 mi
2:00 PM72 °FOvercast.5 mph82%29.74 "Hg6 mi
1:00 PM74 °FPartly sunny.1 mph83%29.73 "Hg6 mi
12:00 PM72 °FOvercast.1 mph87%29.73 "Hg6 mi
11:00 AM71 °FOvercast.No wind90%29.73 "Hg4 mi
Weather by CustomWeather, © 2014

See weather overviewHow to use our weather pages